Weather History for Weatherford, OK

Change the Weather History Date:

Wednesday, July 10, 2013

  Actual Average (KJWG) Record (KJWG)
Temperature  
Mean Temperature 89 °F -  
Max Temperature 100 °F 95 °F 104 °F (1970)
Min Temperature 78 °F 71 °F 53 °F (1961)
Cooling Degree Days 24    
Growing Degree Days 39 (Base 50)    
Moisture  
Dew Point 62 °F    
Average Humidity 40    
Maximum Humidity 54    
Minimum Humidity 27    
Precipitation  
Precipitation 0.00 in - - ()
Sea Level Pressure  
Sea Level Pressure 30.00 in    
Wind  
Wind Speed 8 mph (SSW)    
Max Wind Speed 15 mph    
Max Gust Speed 21 mph    
Visibility 10 miles    
Events      
Averages and records for this station are not official NWS values.
T = Trace of Precipitation, MM = Missing Value Source: NWS Daily Summary

Daily Weather History Graph

Daily Weather History Graph

Search for Another Location

Airport:

Trip Planner

Search our weather history database for the weather conditions in past years. The results will help you decide how hot, cold, wet, or windy it might be!

Date:

Astronomy

Jul. 10, 2013 Rise Set
Actual Time 6:27 AM CDT 8:52 PM CDT
Civil Twilight 5:58 AM CDT 9:21 PM CDT
Nautical Twilight 5:21 AM CDT 9:57 PM CDT
Astronomical Twilight 4:41 AM CDT 10:37 PM CDT
Moon 8:43 AM CDT (7/10) 10:10 PM CDT (7/10)
Length of Visible Light 15h 23m
Length of Day
14h 24m
Waxing Crescent, 5% of the Moon is Illuminated
Jul 10
Waxing Crescent
Jul 15
First Quarter
Jul 22
Full
Jul 29
Last Quarter
Aug 6
New

Hourly Weather History & Observations

Time (CDT) Temp. Heat Index Dew Point Humidity Pressure Visibility Wind Dir Wind Speed Gust Speed Precip Events Conditions
12:15 AM 86.0 °F 86.6 °F 62.6 °F 45% 30.01 in 10.0 mi South 9.2 mph - N/A   Clear
12:35 AM 86.0 °F 86.6 °F 62.6 °F 45% 30.01 in 10.0 mi South 8.1 mph - N/A   Clear
12:55 AM 86.0 °F 86.6 °F 62.6 °F 45% 30.02 in 10.0 mi South 5.8 mph - N/A   Clear
1:15 AM 82.4 °F 83.4 °F 62.6 °F 51% 30.02 in 10.0 mi SSE 5.8 mph - N/A   Clear
1:35 AM 84.2 °F 84.4 °F 60.8 °F 45% 30.02 in 10.0 mi SSE 4.6 mph - N/A   Clear
1:55 AM 84.2 °F 84.4 °F 60.8 °F 45% 30.02 in 10.0 mi SSW 9.2 mph - N/A   Clear
2:15 AM 84.2 °F 84.4 °F 60.8 °F 45% 30.01 in 10.0 mi SSW 8.1 mph - N/A   Clear
2:55 AM 82.4 °F 82.9 °F 60.8 °F 48% 30.01 in 10.0 mi SSW 8.1 mph - N/A   Clear
3:15 AM 80.6 °F 81.5 °F 60.8 °F 51% 30.01 in 10.0 mi SSW 8.1 mph - N/A   Clear
3:35 AM 80.6 °F 81.5 °F 60.8 °F 51% 30.01 in 10.0 mi SSW 8.1 mph - N/A   Clear
3:55 AM 80.6 °F 81.5 °F 60.8 °F 51% 30.01 in 10.0 mi SSW 6.9 mph - N/A   Clear
4:15 AM 78.8 °F - 60.8 °F 54% 30.02 in 10.0 mi SSW 5.8 mph - N/A   Clear
4:35 AM 80.6 °F 81.5 °F 60.8 °F 51% 30.02 in 10.0 mi SSW 5.8 mph - N/A   Clear
4:55 AM 80.6 °F 81.5 °F 60.8 °F 51% 30.03 in 10.0 mi SSW 5.8 mph - N/A   Clear
5:15 AM 78.8 °F - 60.8 °F 54% 30.03 in 10.0 mi SSW 4.6 mph - N/A   Clear
5:35 AM 78.8 °F - 60.8 °F 54% 30.03 in 10.0 mi SW 4.6 mph - N/A   Clear
5:55 AM 78.8 °F - 60.8 °F 54% 30.04 in 10.0 mi West 5.8 mph - N/A   Clear
6:15 AM 78.8 °F - 60.8 °F 54% 30.04 in 10.0 mi WSW 3.5 mph - N/A   Clear
6:35 AM 78.8 °F - 60.8 °F 54% 30.03 in 10.0 mi SW 3.5 mph - N/A   Clear
6:55 AM 78.8 °F - 60.8 °F 54% 30.02 in 10.0 mi SSW 5.8 mph - N/A   Clear
7:15 AM 78.8 °F - 60.8 °F 54% 30.02 in 10.0 mi SSW 5.8 mph - N/A   Clear
7:35 AM 78.8 °F - 60.8 °F 54% 30.02 in 10.0 mi SSW 8.1 mph - N/A   Clear
7:55 AM 80.6 °F 81.5 °F 60.8 °F 51% 30.01 in 10.0 mi SSW 8.1 mph - N/A   Clear
8:15 AM 80.6 °F 81.8 °F 62.6 °F 54% 30.01 in 10.0 mi SSW 9.2 mph - N/A   Clear
8:35 AM 84.2 °F 85.0 °F 62.6 °F 48% 30.02 in 10.0 mi SW 9.2 mph - N/A   Clear
8:55 AM 86.0 °F 86.6 °F 62.6 °F 45% 30.03 in 10.0 mi SW 9.2 mph - N/A   Clear
9:15 AM 87.8 °F 88.5 °F 62.6 °F 43% 30.04 in 10.0 mi WSW 11.5 mph 16.1 mph N/A   Clear
9:35 AM 89.6 °F 90.1 °F 62.6 °F 40% 30.04 in 10.0 mi WSW 10.4 mph - N/A   Clear
9:55 AM 91.4 °F 92.1 °F 62.6 °F 38% 30.04 in 10.0 mi West 11.5 mph 16.1 mph N/A   Clear
10:15 AM 91.4 °F 92.1 °F 62.6 °F 38% 30.04 in 10.0 mi West 11.5 mph 17.3 mph N/A   Clear
10:35 AM 93.2 °F 94.1 °F 62.6 °F 36% 30.04 in 10.0 mi West 12.7 mph 17.3 mph N/A   Clear
10:55 AM 93.2 °F 94.1 °F 62.6 °F 36% 30.04 in 10.0 mi West 12.7 mph - N/A   Clear
11:15 AM 95.0 °F 96.0 °F 62.6 °F 34% 30.04 in 10.0 mi West 10.4 mph 17.3 mph N/A   Clear
11:35 AM 96.8 °F 99.0 °F 64.4 °F 34% 30.04 in 10.0 mi WSW 13.8 mph 17.3 mph N/A   Clear
11:55 AM 96.8 °F 99.0 °F 64.4 °F 34% 30.04 in 10.0 mi WSW 15.0 mph - N/A   Clear
12:15 PM 96.8 °F 98.0 °F 62.6 °F 32% 30.04 in 10.0 mi WSW 13.8 mph 17.3 mph N/A   Clear
12:35 PM 98.6 °F 100.0 °F 62.6 °F 30% 30.03 in 10.0 mi WSW 12.7 mph 20.7 mph N/A   Clear
12:55 PM 96.8 °F 99.0 °F 64.4 °F 34% 30.03 in 10.0 mi WSW 8.1 mph 16.1 mph N/A   Clear
1:15 PM 98.6 °F 100.0 °F 62.6 °F 30% 30.03 in 10.0 mi SW 8.1 mph - N/A   Clear
1:35 PM 98.6 °F 101.0 °F 64.4 °F 32% 30.02 in 10.0 mi West 5.8 mph - N/A   Scattered Clouds
1:55 PM 98.6 °F 100.0 °F 62.6 °F 30% 30.02 in 10.0 mi West 5.8 mph - N/A   Scattered Clouds
2:15 PM 98.6 °F 100.0 °F 62.6 °F 30% 30.02 in 10.0 mi South 5.8 mph - N/A   Clear
2:35 PM 98.6 °F 100.0 °F 62.6 °F 30% 30.01 in 10.0 mi West 5.8 mph - N/A   Clear
2:55 PM 100.4 °F 101.3 °F 60.8 °F 27% 30.00 in 10.0 mi SSE 8.1 mph - N/A   Clear
3:15 PM 100.4 °F 102.4 °F 62.6 °F 29% 30.00 in 10.0 mi SSW 5.8 mph - N/A   Clear
3:35 PM 100.4 °F 102.4 °F 62.6 °F 29% 29.99 in 10.0 mi SSE 6.9 mph - N/A   Clear
3:55 PM 100.4 °F 102.4 °F 62.6 °F 29% 29.99 in 10.0 mi SSW 10.4 mph - N/A   Clear
4:15 PM 100.4 °F 102.4 °F 62.6 °F 29% 29.97 in 10.0 mi SSW 10.4 mph - N/A   Clear
4:35 PM 100.4 °F 101.3 °F 60.8 °F 27% 29.96 in 10.0 mi South 6.9 mph 18.4 mph N/A   Clear
4:55 PM 100.4 °F 102.4 °F 62.6 °F 29% 29.95 in 10.0 mi South 10.4 mph 16.1 mph N/A   Clear
5:15 PM 98.6 °F 99.4 °F 60.8 °F 29% 29.95 in 10.0 mi South 8.1 mph 16.1 mph N/A   Clear
5:35 PM 100.4 °F 101.3 °F 60.8 °F 27% 29.94 in 10.0 mi South 11.5 mph - N/A   Clear
5:55 PM 98.6 °F 100.0 °F 62.6 °F 30% 29.94 in 10.0 mi South 10.4 mph - N/A   Clear
6:15 PM 96.8 °F 98.0 °F 62.6 °F 32% 29.94 in 10.0 mi South 11.5 mph - N/A   Clear
6:35 PM 98.6 °F 100.0 °F 62.6 °F 30% 29.93 in 10.0 mi SSE 15.0 mph 19.6 mph N/A   Clear
6:55 PM 96.8 °F 98.0 °F 62.6 °F 32% 29.93 in 10.0 mi SSE 12.7 mph 18.4 mph N/A   Clear
7:15 PM 95.0 °F 96.0 °F 62.6 °F 34% 29.93 in 10.0 mi SSE 9.2 mph - N/A   Clear
7:35 PM 95.0 °F 96.0 °F 62.6 °F 34% 29.93 in 10.0 mi SSE 10.4 mph - N/A   Clear
7:55 PM 95.0 °F 96.0 °F 62.6 °F 34% 29.93 in 10.0 mi SE 9.2 mph - N/A   Clear
8:15 PM 93.2 °F 94.1 °F 62.6 °F 36% 29.93 in 10.0 mi SSE 9.2 mph - N/A   Clear
8:35 PM 91.4 °F 92.1 °F 62.6 °F 38% 29.93 in 10.0 mi SSE 6.9 mph - N/A   Clear
8:55 PM 89.6 °F 90.1 °F 62.6 °F 40% 29.94 in 10.0 mi SSE 5.8 mph - N/A   Clear
9:15 PM 89.6 °F 90.1 °F 62.6 °F 40% 29.93 in 10.0 mi SSE 5.8 mph - N/A   Clear
9:35 PM 87.8 °F 88.5 °F 62.6 °F 43% 29.95 in 10.0 mi SSE 4.6 mph - N/A   Clear
9:55 PM 87.8 °F 88.5 °F 62.6 °F 43% 29.96 in 10.0 mi SSE 3.5 mph - N/A   Clear
10:15 PM 87.8 °F 88.5 °F 62.6 °F 43% 29.97 in 10.0 mi South 5.8 mph - N/A   Clear
10:35 PM 87.8 °F 88.5 °F 62.6 °F 43% 29.98 in 10.0 mi SSE 5.8 mph - N/A   Clear
10:55 PM 87.8 °F 88.5 °F 62.6 °F 43% 29.99 in 10.0 mi SSE 6.9 mph - N/A   Clear
11:15 PM 86.0 °F 86.6 °F 62.6 °F 45% 29.99 in 10.0 mi SSE 5.8 mph - N/A   Clear
11:35 PM 86.0 °F 86.6 °F 62.6 °F 45% 29.99 in 10.0 mi SSE 5.8 mph - N/A   Clear
11:55 PM 86.0 °F 86.6 °F 62.6 °F 45% 29.99 in 10.0 mi SSE 6.9 mph - N/A   Clear